Location: Freistadt
(48.5112°N, 14.5013°E)
Time: 16:45:33
(UTC+02:00)

CUBEBUG 2 - Pass Details

Date: 11 April 2023
Orbit: 577 x 685 km, 97.8° (Epoch: 02 June)

Event Time Altitude Azimuth Distance (km) Brightness Sun altitude
Rises 02:24:15 0° 28° (NNE) 3,031 ? -30.6°
Reaches altitude 10° 02:27:17 10° 48° (NE) 2,093 ? -30.4°
Maximum altitude 02:30:13 17° 89° (E) 1,663 ? -30.2°
Enters shadow 02:30:31 17° 94° (E) 1,666 ? -30.2°
